Weather observations for the past three days for
Placerville Airport
Metric (Imperial)
Date Time (pdt) Wind (kph) Vis. (km) Weather Sky Cond. Temperature (ºC) Relative Humidity Wind Chill (°C) Heat Index (°C) Pressure Precipitation (cm)
Air Dwpt 6 hour altimeter (cm) sea level (mb) 1 hr 3 hr 6 hr
Max. Min.
10 12:55 E 7 16.09 NULL NULL 26 15 51% 27 76.28 0.0
10 12:35 E 6 16.09 NULL NULL 27 15 48% 27 76.28 0.0
10 12:15 Calm 16.09 NULL NULL 27 14 45% 27 76.28 0.0
10 11:55 Calm 16.09 NULL NULL 27 14 45% 27 76.3 0.0
10 11:35 NE 7 16.09 NULL NULL 27 15 48% 27 76.28 0.0
10 11:15 Calm 16.09 NULL NULL 25 14 51% 26 76.28 0.0
10 10:55 Calm 16.09 NULL NULL 25 14 51% 26 76.28 0.0
10 10:35 Calm 16.09 NULL NULL 25 14 51% 26 76.28 0.0
10 10:15 Calm 16.09 NULL NULL 24 14 54% 25 76.28 0.0
10 09:55 Calm 16.09 NULL NULL 24 14 54% 25 76.28 0.0
10 09:35 Calm 16.09 NULL NULL 24 14 54% 25 76.28 0.0
10 09:15 Calm 16.09 NULL NULL 23 14 57% 76.25 0.0
10 08:55 Calm 16.09 NULL NULL 23 13 53% 76.25 0.0
10 08:35 Calm 16.09 NULL NULL 22 14 61% 76.25 0.0
10 08:15 Calm 16.09 NULL NULL 22 14 61% 76.25 0.0
10 07:55 Calm 16.09 NULL NULL 21 14 64% 76.23 0.0
10 07:35 Calm 16.09 NULL NULL 20 13 64% 76.23 0.0
10 07:15 Calm 16.09 NULL NULL 19 13 68% 76.23 0.0
10 06:55 Calm 16.09 NULL NULL 19 12 64% 76.2 0.0
10 06:35 Calm 16.09 NULL NULL 19 13 68% 76.17 0.0
10 06:15 Calm 16.09 NULL NULL 19 12 64% 76.17 0.0
10 05:55 Calm 16.09 NULL NULL 19 12 64% 76.15 0.0
10 05:35 Calm 16.09 NULL NULL 19 12 64% 76.15 0.0
10 05:15 Calm 16.09 NULL NULL 18 12 68% 76.15 0.0
10 04:55 Calm 16.09 NULL NULL 17 12 73% 76.15 0.0
10 04:35 Calm 16.09 NULL NULL 19 12 64% 76.15 0.0
10 04:15 Calm 16.09 NULL NULL 19 12 64% 76.15 0.0
10 03:55 Calm 16.09 NULL NULL 19 12 64% 76.17 0.0
10 03:35 Calm 16.09 NULL NULL 18 12 68% 76.17 0.0
10 03:15 Calm 16.09 NULL NULL 17 13 77% 76.17 0.0
10 02:55 Calm 16.09 NULL NULL 17 13 77% 76.17 0.0
10 02:35 Calm 16.09 NULL NULL 18 13 73% 76.17 0.0
10 02:15 Calm 16.09 NULL NULL 18 13 73% 76.15 0.0
10 01:55 Calm 16.09 NULL NULL 19 13 68% 76.15 0.0
10 01:15 Calm 16.09 NULL NULL 19 13 68% 76.17 0.0
10 00:55 Calm 16.09 NULL NULL 19 13 68% 76.17 0.0
10 00:35 Calm 16.09 NULL NULL 19 13 68% 76.17 0.0
10 00:15 Calm 16.09 NULL NULL 19 13 68% 76.17 0.0
09 23:55 Calm 16.09 NULL NULL 19 13 68% 76.2 0.0
09 23:35 Calm 16.09 NULL NULL 19 13 68% 76.17 0.0
09 23:15 Calm 16.09 NULL NULL 19 13 68% 76.17 0.0
09 22:55 Calm 16.09 NULL NULL 18 13 73% 76.17 0.0
09 22:35 Calm 16.09 NULL NULL 18 13 73% 76.2 0.0
09 22:15 Calm 16.09 NULL NULL 19 13 68% 76.2 0.0
09 21:55 Calm 16.09 NULL NULL 19 13 68% 76.2 0.0
09 21:35 Calm 16.09 NULL NULL 19 14 73% 76.2 0.0
09 21:15 Calm 16.09 NULL NULL 20 13 64% 76.2 0.0
09 20:55 Calm 16.09 NULL NULL 20 13 64% 76.17 0.0
09 20:35 Calm 16.09 NULL NULL 20 13 64% 76.17 0.0
09 20:15 Calm 16.09 NULL NULL 22 12 53% 76.15 0.0
09 19:55 Calm 16.09 NULL NULL 22 12 53% 76.15 0.0
09 19:35 Calm 16.09 NULL NULL 22 13 57% 76.15 0.0
09 19:15 Calm 16.09 NULL NULL 23 13 53% 76.15 0.0
09 18:55 Calm 16.09 NULL NULL 24 13 50% 25 76.15 0.0
09 18:35 Calm 16.09 NULL NULL 25 12 44% 26 76.15 0.0
09 18:15 Calm 16.09 NULL NULL 24 12 47% 25 76.15 0.0
09 17:55 Calm 16.09 NULL NULL 25 12 44% 26 76.15 0.0
09 17:35 Calm 16.09 NULL NULL 25 13 47% 26 76.17 0.0
09 17:15 Calm 16.09 NULL NULL 25 13 47% 26 76.17 0.0
09 16:55 E 7 16.09 NULL NULL 25 13 47% 26 76.17 0.0
09 16:35 Calm 16.09 NULL NULL 25 14 51% 26 76.17 0.0
09 16:15 Calm 16.09 NULL NULL 25 14 51% 26 76.17 0.0
09 15:55 E 9 16.09 NULL NULL 27 14 45% 27 76.17 0.0
09 15:35 E 7 16.09 NULL NULL 26 14 48% 26 76.2 0.0
09 15:15 E 13 16.09 NULL NULL 26 14 48% 26 76.2 0.0
09 14:55 Calm 16.09 NULL NULL 26 13 45% 26 76.23 0.0
09 14:35 E 7 16.09 NULL NULL 25 12 44% 26 76.23 0.0
09 14:15 NE 6 16.09 NULL NULL 26 13 45% 26 76.23 0.0
09 13:55 E 9 16.09 NULL NULL 25 13 47% 26 76.25 0.0
09 13:35 E 7 16.09 NULL NULL 25 13 47% 26 76.25 0.0
09 13:15 Calm 16.09 NULL NULL 25 14 51% 26 76.25 0.0
09 12:55 E 9 16.09 NULL NULL 25 14 51% 26 76.25 0.0
09 12:35 E 9 16.09 NULL NULL 25 14 51% 26 76.28 0.0
09 12:15 Calm 16.09 NULL NULL 25 14 51% 26 76.28 0.0
09 11:55 Calm 16.09 NULL NULL 24 13 50% 25 76.28 0.0
09 11:35 E 7 16.09 NULL NULL 24 13 50% 25 76.3 0.0
09 11:15 Calm 16.09 NULL NULL 24 13 50% 25 76.3 0.0
09 10:55 E 6 16.09 NULL NULL 24 13 50% 25 76.3 0.0
09 10:35 Calm 16.09 NULL NULL 23 13 53% 76.3 0.0
09 10:15 Calm 16.09 NULL NULL 23 13 53% 76.3 0.0
09 09:55 Calm 16.09 NULL NULL 22 13 57% 76.28 0.0
09 09:35 Calm 16.09 NULL NULL 21 12 57% 76.28 0.0
09 09:15 Calm 16.09 NULL NULL 20 10 53% 76.28 0.0
09 08:55 Calm 16.09 NULL NULL 20 10 53% 76.28 0.0
09 08:35 Calm 16.09 NULL NULL 19 9 52% 76.28 0.0
09 08:15 Calm 16.09 NULL NULL 19 9 52% 76.28 0.0
09 07:55 Calm 16.09 NULL NULL 19 6 43% 76.28 0.0
09 07:35 Calm 16.09 NULL NULL 18 5 43% 76.28 0.0
09 07:15 Calm 16.09 NULL NULL 17 4 42% 76.28 0.0
09 06:55 N 11 16.09 NULL NULL 17 4 42% 76.25 0.0
09 06:35 Calm 16.09 NULL NULL 17 5 45% 76.25 0.0
09 06:15 N 6 16.09 NULL NULL 15 4 48% 76.25 0.0
09 05:55 Calm 16.09 NULL NULL 17 3 39% 76.25 0.0
09 05:35 Calm 16.09 NULL NULL 17 3 39% 76.23 0.0
09 05:15 Calm 16.09 NULL NULL 17 3 39% 76.23 0.0
09 04:55 NE 15 16.09 NULL NULL 16 3 42% 76.23 0.0
09 04:35 N 11 16.09 NULL NULL 17 3 39% 76.23 0.0
09 04:15 N 13 16.09 NULL NULL 17 4 42% 76.23 0.0
09 03:55 Calm 16.09 NULL NULL 17 4 42% 76.25 0.0
09 03:35 N 9 16.09 NULL NULL 17 5 45% 76.25 0.0
09 03:15 NE 11 16.09 NULL NULL 17 5 45% 76.25 0.0
09 02:55 N 11 16.09 NULL NULL 17 5 45% 76.25 0.0
09 02:35 N 13 16.09 NULL NULL 17 7 52% 76.25 0.0
09 02:15 Calm 16.09 NULL NULL 17 7 52% 76.28 0.0
09 01:55 N 11 16.09 NULL NULL 17 7 52% 76.28 0.0
09 01:35 N 11 16.09 NULL NULL 17 8 56% 76.28 0.0
09 01:15 Calm 16.09 NULL NULL 18 8 52% 76.3 0.0
09 00:35 Calm 16.09 NULL NULL 18 8 52% 76.3 0.0
09 00:15 N 13 16.09 NULL NULL 18 8 52% 76.3 0.0
08 23:55 Calm 16.09 NULL NULL 19 9 52% 76.3 0.0
08 23:35 N 11 16.09 NULL NULL 18 9 56% 76.3 0.0
08 23:15 N 11 16.09 NULL NULL 18 9 56% 76.3 0.0
08 22:55 Calm 16.09 NULL NULL 18 9 56% 76.3 0.0
08 22:35 N 9 16.09 NULL NULL 18 10 60% 76.33 0.0
08 22:15 Calm 16.09 NULL NULL 19 8 49% 76.33 0.0
08 21:55 Calm 16.09 NULL NULL 19 9 52% 76.33 0.0
08 21:35 Calm 16.09 NULL NULL 19 9 52% 76.33 0.0
08 21:15 Calm 16.09 NULL NULL 20 9 49% 76.33 0.0
08 20:55 Calm 16.09 NULL NULL 20 9 49% 76.33 0.0
08 20:35 Calm 16.09 NULL NULL 20 9 49% 76.33 0.0
08 20:15 Calm 16.09 NULL NULL 20 10 53% 76.33 0.0
08 19:55 Calm 16.09 NULL NULL 21 10 50% 76.3 0.0
08 19:35 Calm 16.09 NULL NULL 22 8 41% 76.3 0.0
08 19:15 Calm 16.09 NULL NULL 22 8 41% 76.3 0.0
08 18:55 Calm 16.09 NULL NULL 23 8 38% 76.3 0.0
08 18:35 Calm 16.09 NULL NULL 23 8 38% 76.33 0.0
08 18:15 Calm 16.09 NULL NULL 23 8 38% 76.3 0.0
08 17:55 Calm 16.09 NULL NULL 24 7 34% 25 76.33 0.0
08 17:35 Calm 16.09 NULL NULL 24 8 36% 25 76.33 0.0
08 17:15 E 7 16.09 NULL NULL 24 8 36% 25 76.33 0.0
08 16:55 E 7 16.09 NULL NULL 24 7 34% 25 76.35 0.0
08 16:35 Calm 16.09 NULL NULL 24 7 34% 25 76.35 0.0
08 16:15 E 11 16.09 NULL NULL 24 8 36% 25 76.35 0.0
08 15:55 E 7 16.09 NULL NULL 24 8 36% 25 76.38 0.0
08 15:35 E 9 16.09 NULL NULL 24 8 36% 25 76.4 0.0
08 15:15 E 6 16.09 NULL NULL 24 9 39% 25 76.4 0.0
08 14:55 E 9 16.09 NULL NULL 24 10 41% 25 76.43 0.0
08 14:35 Calm 16.09 NULL NULL 24 12 47% 25 76.43 0.0
08 14:15 E 13 16.09 NULL NULL 24 10 41% 25 76.45 0.0
08 13:55 E 9 16.09 NULL NULL 24 13 50% 25 76.45 0.0
08 13:35 E 7 16.09 NULL NULL 23 13 53% 76.45 0.0
08 13:15 E 11 14.48 NULL NULL 24 10 41% 25 76.45 0.0
08 12:55 E 7 16.09 NULL NULL 24 10 41% 25 76.45 0.0
08 12:35 E 13 16.09 NULL NULL 24 9 39% 25 76.48 0.0
08 12:15 E 6 16.09 NULL NULL 23 10 44% 76.48 0.0
08 11:55 E 7 16.09 NULL NULL 24 11 44% 25 76.48 0.0
08 11:35 NE 9 16.09 NULL NULL 23 10 44% 76.48 0.0
08 11:15 Calm 16.09 NULL NULL 23 9 41% 76.48 0.0
08 10:55 Calm 16.09 NULL NULL 22 9 44% 76.48 0.0
08 10:35 Calm 16.09 NULL NULL 22 7 38% 76.48 0.0
08 10:15 Calm 16.09 NULL NULL 22 8 41% 76.48 0.0
08 09:55 Calm 16.09 NULL NULL 22 8 41% 76.48 0.0
08 09:35 Calm 16.09 NULL NULL 21 8 43% 76.48 0.0
08 09:15 Calm 11.27 NULL NULL 20 8 46% 76.48 0.0
08 08:55 Calm 16.09 NULL NULL 20 7 43% 76.48 0.0
08 08:35 Calm 16.09 NULL NULL 20 5 38% 76.45 0.0
08 08:15 Calm 16.09 NULL NULL 19 5 40% 76.45 0.0
08 07:55 Calm 16.09 NULL NULL 18 4 40% 76.45 0.0
08 07:35 Calm 16.09 NULL NULL 18 3 37% 76.43 0.0
08 07:15 NE 9 16.09 NULL NULL 17 2 37% 76.43 0.0
08 06:55 NE 11 16.09 NULL NULL 15 3 45% 76.43 0.0
08 06:35 NE 11 16.09 NULL NULL 15 2 42% 76.4 0.0
08 06:15 NE 11 16.09 NULL NULL 14 3 48% 76.4 0.0
08 05:55 NE 9 16.09 NULL NULL 15 3 45% 76.38 0.0
08 05:35 NE 9 16.09 NULL NULL 15 4 48% 76.38 0.0
08 05:15 NE 11 16.09 NULL NULL 15 4 48% 76.38 0.0
08 04:55 Calm 16.09 NULL NULL 15 5 51% 76.38 0.0
08 04:35 NE 11 16.09 NULL NULL 15 5 51% 76.38 0.0
08 04:15 Calm 16.09 NULL NULL 15 7 59% 76.38 0.0
08 03:55 Calm 16.09 NULL NULL 15 8 63% 76.38 0.0
08 03:35 Calm 16.09 NULL NULL 14 7 63% 76.38 0.0
08 03:15 Calm 16.09 NULL NULL 15 8 63% 76.38 0.0
08 02:55 Calm 16.09 NULL NULL 17 8 56% 76.4 0.0
08 02:35 Calm 16.09 NULL NULL 17 7 52% 76.4 0.0
08 02:15 Calm 16.09 NULL NULL 16 8 59% 76.4 0.0
08 01:55 Calm 16.09 NULL NULL 17 9 60% 76.38 0.0
08 01:35 Calm 16.09 NULL NULL 15 9 68% 76.38 0.0
08 01:15 Calm 16.09 NULL NULL 15 10 72% 76.4 0.0
08 00:55 Calm 16.09 NULL NULL 15 11 77% 76.4 0.0
08 00:35 Calm 16.09 NULL NULL 17 12 73% 76.4 0.0
08 00:15 Calm 16.09 NULL NULL 17 12 73% 76.38 0.0
07 23:55 Calm 16.09 NULL NULL 17 12 73% 76.38 0.0
07 23:35 NE 11 16.09 NULL NULL 17 12 73% 76.4 0.0
07 23:15 NE 7 16.09 NULL NULL 17 13 77% 76.4 0.0
07 22:55 Calm 16.09 NULL NULL 19 13 68% 76.4 0.0
07 22:35 Calm 16.09 NULL NULL 19 13 68% 76.43 0.0
07 22:15 Calm 16.09 NULL NULL 18 13 73% 76.43 0.0
07 21:55 Calm 16.09 NULL NULL 18 13 73% 76.43 0.0
07 21:35 Calm 16.09 NULL NULL 17 13 77% 76.43 0.0
07 21:15 Calm 16.09 NULL NULL 18 13 73% 76.43 0.0
07 20:55 Calm 16.09 NULL NULL 19 13 68% 76.43 0.0
07 20:35 Calm 16.09 NULL NULL 20 12 60% 76.4 0.0
07 20:15 Calm 16.09 NULL NULL 20 12 60% 76.4 0.0
07 19:55 Calm 16.09 NULL NULL 21 12 57% 76.4 0.0
07 19:35 Calm 16.09 NULL NULL 22 12 53% 76.38 0.0
07 19:15 Calm 16.09 NULL NULL 22 12 53% 76.38 0.0
07 18:55 Calm 16.09 NULL NULL 22 12 53% 76.38 0.0
07 18:35 Calm 16.09 NULL NULL 23 12 50% 76.38 0.0
07 18:15 Calm 16.09 NULL NULL 23 12 50% 76.4 0.0
07 17:55 Calm 16.09 NULL NULL 23 13 53% 76.4 0.0
07 17:35 Calm 16.09 NULL NULL 23 13 53% 76.4 0.0
07 17:15 E 9 16.09 NULL NULL 24 13 50% 25 76.4 0.0
07 16:55 E 11 16.09 NULL NULL 24 13 50% 25 76.4 0.0
07 16:35 E 6 16.09 NULL NULL 24 13 50% 25 76.4 0.0
07 16:15 E 7 16.09 NULL NULL 23 13 53% 76.4 0.0
07 15:55 E 7 16.09 NULL NULL 24 13 50% 25 76.43 0.0
07 15:35 Calm 16.09 NULL NULL 24 14 54% 25 76.43 0.0
07 15:15 E 7 16.09 NULL NULL 23 14 57% 76.45 0.0
07 14:55 E 11 16.09 NULL NULL 23 15 61% 76.45 0.0
07 14:35 E 9 16.09 Fair CLR 23 15 61% 76.48 0.0
07 14:15 Calm 16.09 Fair CLR 23 15 61% 76.5 0.0
Date Time (pdt) Wind (kph) Vis. (km) Weather Sky Cond. Air Dwpt Max. Min. Relative Humidity Wind Chill (°C) Heat Index (°C) altimeter (cm) sea level (mb) 1 hr 3 hr 6 hr
6 hour
Temperature (ºC) Pressure Precipitation (cm)